If you wish to contribute or participate in the discussions about articles you are invited to join SKYbrary as a registered user

 Actions

Iwami Airport

From SKYbrary Wiki

RJOW
Airport
ICAO: RJOW – IATA: IWJ
Summary
Name Iwami Airport
Region Asia and Pacific
Territory Japan JP.gif
Location Masuda, Shimane Prefecture
Serving Iwami
Elevation 53.95 m <br />177 ft53.95 m <br />
Coordinates 34° 40' 42.36" N, 131° 47' 48.42" E
Runways
Designator Length Width Surface ROPS
11/29 2000 m6,561.68 ft <br /> 45 m147.638 ft <br /> ASP yes/yes


METAR
Observation RJOW 230800Z 01009KT 320V050 9999 FEW015 23/18 Q1010
Station Iwami Airport
Date/Time 23 June 2021 08:00:00
Wind direction 10°
Wind speed 09 kts
Lowest cloud amount few clouds
Temperature 23°C
Dew point 18°C
Humidity 73%
QNH 1010 hPa
Weather condition n/a

Airport located 2.8nm5,185.6 m <br />5.186 km <br />17,013.123 ft <br /> southwest of Masuda, Shimane Prefecture, Japan. It is also known as Hagi-Iwami Airport due to its proximity to the city of Hagi in Yamaguchi Prefecture.

Climatology

Humid Sub-tropical climate (Köppen climate classification Cfa)

Maps

Terrain

Loading map...

Airport Layout

Loading map...


Accidents & Serious Incidents at or in vicinity of RJOW

None on SKYbrary